Portada
METAR-TAF:

METAR-TAF

Aeroports :

Montauk, Nova York, Estats Units d'Amèrica

latitud: 41-04-23N, longitud: 071-55-24W, altitud: 2 m

Observació

L'informe es va fer fa 53 minuts, a les 23:54 UTC
Vent 12 kt del Est/Nord-Est amb ràfegues de 18 kt
Temperatura 7°C
Humitat 87%
Pressió 1004 hPa

METAR: KMTP 152354Z AUTO 07012G18KT 07/05 A2966 RMK AO1 SLP044 P0007 60052 T00670050 10089 20061 58015

Hora: 20:47 (00:47 UTC)


TAF: manca

Observacions i pronòstics meteorològics de més de 4000 aeroports (METAR i TAF).

Les estacions disponibles són els punts grocs i vermells al mapa.

Posi el ratolí al punt desitjat per veure el nom de l'estació.

Feu clic per veure les observacions i els pronòstics meteorològics.

Per canviar el mapa: feu clic els botons verds amb una creu de color negre per apropar; al botó verd amb un guió per allunyar la imatge; o en les fletxes verdes per a mapes adjacents.


METAR-TAF: